User: anonymous   Login
Location: Thompson
(55.7500°N, 97.8670°W)
Time: 19:00:51
(UTC-05:00)
Language:

Cosmos 1833 Rocket - Orbit

View from above orbital plane
View from above orbital plane
View from above satellite
View from above satellite

Ground track
Ground track

The orbit data is extracted from the following two-line orbital elements,

1 17590U 87027B   17147.65556585 +.00000207 +00000-0 +12762-3 0  9991
2 17590 071.0023 193.2105 0006338 316.1799 043.8821 14.16742621561219
Epoch (UTC): 27 May 2017 15:44:00
Eccentricity: 0.0006338
inclination: 71.0023°
perigee height: 832 km
apogee height: 841 km
right ascension of ascending node: 193.2105°
argument of perigee: 316.1799°
revolutions per day: 14.16742621
mean anomaly at epoch: 43.8821°
orbit number at epoch: 56121

The dashed part of the orbit path shows where the satellite is in the earth's shadow,  

DLR